Temp
24 24 24 25 25 25 24 24 24 24 23 23 23 23 22 22 22 21 22 22 21 21 21 21 22 21 21 21 22 23 23 23 23 23 23 23 23 23 23 24 24 24 24 24 24 24 24 24 24 25 24 24 25 25 25 25 25 25 25 25 25 25 25 25 25 25 24 24 24 24 24 24 24 24 24 23 23 23 23 23 22 22 22 22 22
23 23 23 24 24 24 24 24 23 23 23 23 23 23 23 22 22 22 22 22 22 22 22 22 22 22 22 22 23 23 23 23 23 23 24 24 23 23 23 24 24 24 24 24 24 24 24 24 24 24 24 24 25 25 25 25 25 25 25 25 25 25 25 25 25 25 24 24 24 24 24 24 24 24 24 24 23 23 23 23 22 23 23 23 23
23 23 22 23 23 23 24 23 23 23 23 23 23 23 23 23 22 22 22 22 22 22 22 23 23 23 23 24 24 24 24 23 24 24 24 24 23 23 23 24 24 24 24 24 24 24 24 24 24 24 24 24 25 25 25 25 25 25 25 25 25 25 25 25 25 25 24 24 23 23 24 24 24 24 23 24 24 24 23 23 23 23 23 23 23
23 23 22 22 22 22 23 23 23 23 22 22 23 23 23 23 23 23 22 22 22 22 22 23 24 24 24 24 24 23 23 23 23 24 24 24 23 24 24 24 24 24 24 24 24 24 24 24 24 24 24 24 25 25 25 25 25 25 25 25 25 24 25 25 25 25 25 24 24 23 22 23 24 24 23 24 24 24 24 23 23 23 23 23 23
23 23 22 22 22 22 22 22 23 22 22 22 23 24 23 23 23 23 23 23 23 23 23 23 23 23 23 23 22 22 22 22 23 23 24 24 24 24 24 24 24 24 24 24 24 24 24 24 24 24 24 24 24 25 25 25 25 25 25 25 24 24 25 25 25 25 25 25 24 24 23 23 24 23 23 24 24 24 24 23 23 23 23 23 22
23 23 22 22 22 22 22 22 22 22 22 23 24 24 24 24 23 23 23 23 23 23 23 23 23 23 23 22 22 22 22 22 23 23 24 24 24 24 25 25 25 25 25 25 25 25 25 25 25 24 24 24 24 25 25 25 25 25 25 25 24 24 24 24 25 25 25 25 24 24 24 24 24 23 23 24 24 24 24 23 23 23 23 23 22
23 23 23 22 22 22 22 22 22 22 22 23 23 24 24 24 24 23 23 23 23 23 23 23 23 23 23 23 23 22 22 23 24 24 24 24 25 25 25 25 25 25 25 25 25 25 25 25 25 24 24 24 24 24 24 25 25 25 25 25 25 24 24 25 25 25 25 25 25 25 24 24 24 23 23 23 23 24 24 24 24 23 23 23 23
23 23 23 22 22 22 22 22 22 22 22 22 22 23 23 24 23 24 24 23 23 23 23 23 23 23 23 23 23 23 23 24 24 24 24 25 25 25 25 25 25 25 25 25 25 25 25 25 25 25 24 24 24 24 24 24 25 25 25 25 25 25 25 25 25 25 25 25 25 25 24 24 24 23 23 23 23 23 23 23 24 24 24 23 23
23 23 23 23 22 22 22 22 22 21 22 22 22 22 23 23 23 24 24 23 23 23 23 23 24 24 24 23 23 24 24 24 24 24 24 25 25 25 25 25 25 25 25 26 26 26 26 26 25 25 24 24 24 24 24 24 25 25 25 25 25 25 25 25 25 25 25 25 25 24 24 24 24 23 23 23 23 23 24 24 23 23 24 24 24
23 23 23 23 23 23 22 22 22 22 23 23 23 22 23 23 23 23 24 24 23 23 23 23 23 23 23 23 23 23 24 24 24 24 24 24 24 25 25 25 25 25 26 26 26 26 26 26 25 25 24 24 24 24 24 24 25 25 24 24 24 24 25 25 25 25 25 25 24 24 24 24 23 23 23 23 23 22 23 23 22 22 23 24 24
23 23 23 23 23 23 22 22 22 22 23 23 23 23 23 23 23 23 24 24 23 23 23 23 23 23 23 24 24 24 24 24 24 24 24 24 24 24 25 25 25 25 26 26 26 26 26 25 25 25 24 24 24 24 24 25 25 25 24 24 24 24 25 25 24 24 24 24 24 24 24 24 24 24 24 24 23 22 22 23 22 22 23 23 24
23 23 23 23 22 22 22 22 22 22 22 22 23 23 23 23 23 24 24 24 24 24 24 24 23 23 23 24 24 24 24 24 24 24 24 24 24 24 24 24 25 25 25 26 26 26 25 25 25 25 24 24 24 24 24 25 25 25 24 24 24 24 24 24 24 24 24 24 24 24 24 24 24 24 24 24 24 23 23 23 22 23 23 23 24
23 23 23 23 22 22 22 22 21 21 22 22 23 23 23 23 24 24 24 24 24 24 24 24 23 24 24 24 24 24 24 24 24 25 25 25 25 25 24 24 24 25 25 25 26 26 26 25 25 25 24 24 24 24 25 25 25 25 24 24 24 24 24 24 24 24 24 24 24 24 24 24 24 24 24 24 24 24 23 22 22 23 23 23 24
23 23 23 23 22 22 22 22 21 21 21 22 22 23 23 23 24 24 24 24 24 24 24 24 24 24 24 24 24 24 24 24 24 25 25 25 25 25 25 25 25 25 25 25 26 26 26 25 25 25 25 25 25 25 25 25 25 25 24 24 24 24 24 24 24 24 24 24 24 24 24 24 24 24 24 24 24 24 23 23 23 23 22 22 23
23 23 23 23 22 22 22 22 21 22 22 22 22 23 23 24 24 24 24 24 24 24 24 24 24 24 24 24 24 24 24 24 24 25 25 25 25 25 25 25 25 25 25 26 26 26 26 26 25 25 25 25 25 25 25 25 25 25 24 24 24 24 24 24 24 24 24 24 24 24 24 24 24 24 24 24 24 24 24 24 23 23 23 22 22
23 23 23 22 22 22 22 22 22 22 22 22 22 22 23 24 23 23 24 24 24 24 24 24 24 24 24 24 24 24 24 24 24 25 25 25 25 25 25 26 25 25 26 26 26 26 26 26 25 25 25 25 25 25 25 25 25 25 24 24 24 24 24 24 24 24 24 24 24 24 23 23 23 23 23 23 24 24 24 24 23 23 23 23 23
23 23 23 23 22 22 22 22 22 22 22 23 23 23 23 23 23 23 23 24 24 24 24 24 24 24 24 24 24 24 24 24 24 25 25 25 25 25 26 26 25 25 26 26 26 26 26 26 25 25 25 25 25 24 24 25 25 24 24 24 24 24 24 24 24 24 24 24 23 23 23 23 23 23 23 23 23 24 24 24 23 23 23 23 23
23 23 23 23 22 22 22 22 22 22 22 23 24 24 23 23 23 23 23 23 23 24 24 24 24 24 24 24 24 24 24 24 25 25 25 25 25 25 26 25 25 25 25 26 26 26 26 26 25 25 25 24 24 24 24 24 24 24 24 24 24 24 24 24 24 24 24 23 23 23 23 23 23 23 23 23 23 23 24 24 24 23 23 23 23
23 23 23 23 22 22 22 22 22 22 22 23 23 23 23 23 23 23 23 23 23 23 23 23 23 23 23 24 24 24 24 24 24 25 25 25 25 25 25 25 25 25 25 25 25 25 25 25 25 25 24 24 24 24 24 24 24 24 24 24 24 24 24 24 23 23 23 23 23 23 23 23 23 23 23 23 23 23 23 23 23 23 23 23 23
24 23 23 23 22 22 22 22 22 22 22 23 23 22 22 22 23 23 23 23 23 23 23 23 23 23 23 24 24 24 25 25 24 24 25 25 25 25 25 25 25 25 25 25 25 25 25 25 25 24 24 24 24 24 24 24 24 24 24 24 24 24 23 23 23 23 23 23 23 23 23 23 23 23 23 23 23 23 23 23 23 23 23 23 23
23 23 24 23 22 22 22 23 23 23 23 23 22 23 22 22 22 23 23 24 24 23 22 22 22 22 22 23 24 24 25 25 25 24 24 24 25 25 25 25 25 25 25 25 25 25 25 24 24 24 24 24 24 24 24 23 23 24 24 24 24 23 23 23 23 23 23 23 23 22 23 23 23 23 22 22 22 22 22 23 23 23 23 23 23
21 22 23 23 22 22 22 23 23 23 23 23 23 23 22 22 23 23 23 23 23 22 22 22 22 21 21 22 23 24 25 25 24 24 24 24 24 25 24 24 24 24 24 24 24 24 24 24 24 24 24 24 24 24 23 23 23 23 24 24 24 23 23 23 23 23 23 23 23 22 23 22 22 22 22 22 22 22 22 22 23 23 23 23 23
21 21 22 22 22 22 22 23 23 23 23 23 23 23 23 23 23 23 23 23 22 22 22 23 23 23 22 22 22 23 24 24 24 24 24 24 24 24 24 24 24 24 24 24 24 24 24 24 24 24 24 23 23 23 23 23 23 23 23 23 23 23 23 23 23 23 23 23 23 22 23 22 22 22 22 21 22 22 22 22 22 23 23 23 23
20 21 21 21 21 22 22 22 22 22 22 23 23 23 23 23 22 22 23 22 22 22 22 23 24 23 23 22 22 22 22 23 23 24 24 24 24 24 24 24 24 24 24 24 24 24 23 23 23 23 23 23 23 23 23 23 23 23 23 23 23 22 22 22 22 23 23 23 22 22 22 22 22 21 21 21 22 22 22 22 22 23 23 23 23
20 20 20 21 21 21 21 21 22 22 22 22 22 23 23 23 23 23 22 22 22 21 22 23 23 22 22 22 22 22 22 22 22 23 23 23 23 23 23 23 23 23 23 23 23 22 23 23 23 23 23 23 23 23 23 23 23 23 22 22 22 22 22 21 21 22 23 22 22 22 22 22 22 21 21 22 22 22 22 22 22 22 23 23 23
19 20 20 20 20 20 20 21 21 21 21 22 22 22 23 23 23 22 21 21 22 22 22 22 21 21 21 22 22 23 23 22 22 22 21 21 21 21 21 21 22 22 22 22 21 21 21 22 22 22 22 22 22 22 22 22 22 22 22 22 22 22 22 22 21 21 22 22 22 22 22 22 22 22 22 22 22 22 22 22 22 22 22 22 23
19 20 19 19 20 20 20 20 21 21 21 22 22 22 22 23 22 21 20 21 22 22 22 21 20 20 21 22 23 23 22 21 21 21 21 21 21 20 20 21 21 22 22 22 22 21 21 21 22 22 22 22 22 22 22 21 21 21 21 21 22 22 22 21 21 21 22 22 22 22 22 22 22 22 22 22 22 21 21 21 22 22 22 22 22
19 19 19 19 19 20 19 19 21 21 21 22 22 22 22 22 20 19 20 22 23 22 21 21 21 21 21 23 23 23 22 21 21 22 22 21 20 20 21 21 22 22 22 22 22 21 21 21 21 21 21 21 21 21 21 21 21 21 21 21 22 22 21 20 20 21 22 22 22 22 22 22 22 22 22 22 22 21 21 21 22 22 22 22 22
19 19 19 19 19 19 19 19 20 20 21 21 21 22 22 20 19 20 21 23 23 22 21 21 21 21 22 22 22 22 22 21 21 21 21 20 19 20 21 21 21 21 22 22 22 21 21 21 21 21 21 21 21 21 21 21 21 21 21 21 22 21 20 21 21 21 22 21 21 22 22 22 22 21 21 21 21 21 21 21 21 21 21 21 21
19 19 19 19 19 19 19 19 19 20 20 20 20 21 20 19 19 20 21 22 22 21 20 20 20 21 21 21 21 22 22 21 21 21 20 19 19 20 20 20 21 21 22 22 22 21 21 22 21 21 21 21 21 21 21 21 21 21 21 21 21 20 21 22 22 21 21 21 21 21 22 22 21 21 21 21 21 21 21 21 21 21 21 21 21
19 19 19 19 19 19 19 19 19 19 20 20 20 20 20 19 19 20 20 21 21 20 19 19 20 21 21 20 21 22 22 21 22 21 20 19 20 20 20 20 21 21 22 22 22 21 21 22 21 21 20 20 21 21 22 21 21 21 21 21 20 20 21 21 21 21 21 21 21 21 21 21 21 21 21 21 21 21 21 21 21 21 21 20 20
19 19 19 19 19 19 19 19 19 19 19 20 20 20 20 20 20 20 20 21 20 20 19 19 20 21 20 21 21 22 21 21 21 21 20 20 20 20 20 20 21 21 22 21 21 21 21 21 21 20 20 20 21 21 22 21 21 20 21 21 21 21 21 21 21 21 21 20 20 21 21 21 21 21 21 21 21 21 21 21 21 21 21 21 20
19 19 19 19 19 19 19 19 19 19 19 19 19 20 20 20 20 20 20 20 20 20 19 18 20 21 20 21 21 21 20 20 20 20 20 20 19 20 20 20 20 20 20 20 20 20 20 20 20 20 20 20 21 21 21 21 21 21 21 21 21 21 21 20 21 20 20 20 20 21 21 21 21 21 21 21 21 21 21 21 21 21 21 21 21
19 19 19 19 18 19 19 19 18 19 19 19 19 19 20 21 20 20 20 20 21 20 18 18 20 21 20 20 21 20 20 20 20 19 19 19 19 20 20 20 20 20 19 20 20 20 20 20 20 20 20 20 20 20 20 20 20 20 20 20 20 20 20 20 20 20 20 20 21 21 21 21 22 22 22 21 22 22 21 21 21 20 20 21 21
19 19 19 19 18 18 19 18 18 19 19 19 19 19 19 20 20 20 20 20 21 20 19 19 20 20 20 20 20 20 20 20 19 18 18 18 19 20 20 20 20 20 20 19 19 19 19 20 20 19 19 20 20 20 19 20 20 20 20 20 20 20 20 20 20 20 20 20 21 21 21 22 22 22 22 22 22 22 21 21 21 20 20 20 21
19 19 18 18 18 18 18 18 18 18 19 19 19 19 19 20 20 20 20 21 21 21 21 20 20 20 20 21 21 20 21 20 18 18 18 19 20 20 20 20 20 20 19 19 19 19 19 19 19 20 20 20 20 19 19 20 20 20 20 20 20 20 20 20 20 20 20 21 21 21 21 21 22 22 22 21 21 21 21 21 21 21 20 21 21
19 19 19 19 19 18 18 18 18 18 18 19 19 19 19 20 21 20 20 21 21 21 21 21 21 21 21 21 21 21 21 20 19 19 19 20 20 20 19 19 19 19 19 19 19 19 19 19 19 19 20 19 19 19 19 19 19 19 20 20 20 20 20 20 20 20 20 21 21 21 21 21 21 21 21 21 21 21 21 21 21 21 21 21 21
19 19 19 19 19 19 18 18 18 18 18 18 19 19 19 20 21 20 20 20 21 21 21 21 21 21 21 21 21 21 21 20 20 20 20 20 20 19 19 19 19 19 19 19 19 19 19 19 19 19 19 19 19 19 19 19 19 19 19 20 20 20 20 20 20 20 20 20 20 20 20 20 20 20 20 20 20 20 20 20 20 20 20 20 20
20 19 19 19 19 19 18 18 18 18 18 18 18 19 19 20 20 19 19 19 20 20 20 20 21 21 21 21 21 21 21 21 20 20 20 20 20 20 20 20 19 19 19 19 19 19 20 19 19 19 19 20 19 19 19 19 19 19 19 20 20 20 20 20 20 20 20 20 19 19 19 19 20 20 20 20 20 20 20 20 20 20 20 20 20
20 20 20 20 19 19 18 18 17 18 18 19 19 19 19 19 19 19 18 19 19 19 19 20 21 21 21 21 21 21 21 21 21 21 21 21 21 21 21 20 20 20 20 20 21 21 21 20 20 20 20 20 19 19 19 19 19 19 19 20 20 20 20 20 19 19 19 19 18 18 18 19 19 19 19 19 19 20 20 20 20 20 19 19 19
20 20 20 20 19 19 18 18 18 18 18 19 20 20 20 19 19 19 19 19 19 19 20 20 21 21 21 21 21 21 21 21 21 21 22 21 21 21 21 21 21 21 21 21 22 22 21 21 20 20 19 19 19 19 19 19 19 19 19 19 19 19 19 18 18 17 17 17 17 18 18 18 19 19 19 19 19 19 19 19 19 19 19 18 18
20 20 20 20 19 19 19 18 18 18 18 18 19 19 20 19 19 19 19 20 20 20 20 20 21 21 21 21 21 21 21 21 21 22 22 21 21 21 21 21 21 21 21 22 22 21 21 21 20 19 19 19 19 19 19 19 19 19 19 19 19 18 18 17 17 17 17 17 17 18 18 18 18 19 19 19 19 19 19 19 19 18 18 17 17
19 20 20 20 19 19 19 19 18 18 18 18 18 18 19 19 19 19 19 20 20 20 20 20 21 21 21 21 21 21 21 22 22 22 22 21 21 21 21 21 21 21 21 21 21 21 21 21 20 19 19 19 19 19 19 19 18 18 18 18 18 18 18 17 17 17 17 17 17 17 18 18 18 19 19 19 19 19 19 18 18 18 17 17 17
18 19 19 19 19 19 19 19 19 19 18 18 18 18 18 18 18 18 19 20 20 20 20 21 21 21 21 21 21 22 22 22 22 22 22 21 21 21 21 21 21 21 21 21 21 21 20 20 20 20 19 19 19 19 19 18 18 18 18 18 18 18 17 17 17 17 17 17 17 17 18 18 18 18 18 18 18 18 18 18 17 17 17 17 17
18 19 19 19 19 19 19 19 19 19 18 18 18 18 18 18 18 19 19 19 20 20 20 20 21 21 21 21 21 22 22 22 22 22 22 22 22 22 21 21 21 21 21 21 21 20 20 20 20 20 20 19 19 19 19 18 18 18 17 18 17 17 17 17 17 17 17 17 17 17 17 17 17 17 17 17 17 18 18 17 17 17 17 17 17
18 18 19 19 19 19 18 19 19 19 19 19 19 18 18 18 18 19 19 19 19 19 19 20 21 21 21 21 22 22 22 22 22 22 22 22 22 22 21 21 21 21 21 20 20 20 20 20 19 20 20 19 19 19 19 18 18 17 17 17 17 17 17 16 16 16 16 16 17 17 17 17 17 17 17 17 17 17 17 17 17 17 17 17 17
18 18 18 18 18 18 18 18 19 19 19 19 19 19 18 18 19 19 19 18 19 19 19 19 20 20 21 21 21 22 22 22 22 22 22 21 21 21 21 21 20 20 20 20 20 20 19 19 19 19 19 19 19 19 19 18 18 18 17 17 17 17 16 16 16 16 16 16 16 16 16 16 16 17 17 17 17 17 17 17 17 17 17 17 16
18 18 18 18 18 18 18 18 19 19 19 19 19 19 19 19 19 19 19 19 18 19 19 19 20 20 20 21 21 21 22 22 21 21 21 21 21 21 21 21 21 21 20 20 20 19 19 19 19 19 19 19 19 19 19 19 19 18 18 17 17 17 17 16 16 16 16 16 16 16 16 17 17 17 17 17 17 17 17 17 17 17 17 17 16
17 18 18 18 18 18 18 18 19 20 20 19 19 19 19 19 19 20 20 19 19 18 19 19 19 20 20 20 21 21 21 21 21 21 21 21 21 21 21 21 21 21 21 20 20 20 19 19 19 19 19 19 19 19 19 19 19 19 18 17 17 17 17 17 17 16 16 16 16 17 17 17 17 17 17 17 17 17 17 17 17 17 17 17 16
17 18 18 18 18 18 18 19 19 20 20 19 19 20 19 19 19 19 19 19 19 19 19 19 19 19 20 20 20 20 21 21 21 21 21 21 21 21 21 21 21 21 20 20 20 20 20 19 19 19 19 19 19 19 19 19 19 19 18 18 18 17 17 17 17 17 16 16 17 17 17 17 17 17 17 17 17 17 18 18 17 17 17 17 17
17 17 17 17 18 18 18 19 20 20 20 20 20 20 20 19 19 19 19 19 19 19 19 19 19 19 20 20 19 20 20 20 20 21 21 21 21 20 20 21 21 21 21 20 20 20 20 19 19 19 19 19 19 19 19 19 19 19 18 18 18 18 17 17 17 17 17 17 17 17 17 17 17 17 18 18 18 18 18 18 18 18 17 17 17
Height
778 779 780 782 783 784 787 789 791 792 793 795 798 800 802 804 807 808 810 811 813 814 815 816 817 820 822 823 824 826 828 829 830 832 833 834 836 837 838 839 840 841 842 843 844 845 846 847 848 849 850 850 850 849 850 850 850 850 850 850 850 850 850 850 850 849 848 847 846 845 844 843 843 843 843 843 843 843 843 842 842 841 840 839 839
778 779 779 781 782 783 785 787 788 790 791 794 796 798 801 803 805 807 809 810 811 812 813 814 815 817 819 821 823 825 826 827 829 831 832 833 834 836 837 838 839 840 841 842 843 844 845 846 847 848 849 849 849 849 849 849 849 850 849 849 849 849 849 849 849 848 847 847 846 846 845 844 843 843 843 843 842 842 842 842 841 841 840 839 839
779 779 779 780 781 782 783 784 786 787 790 794 796 797 799 801 803 805 807 809 810 811 812 813 814 816 818 820 822 824 825 826 828 830 831 832 833 834 835 836 837 838 840 841 841 842 843 844 846 847 848 849 849 849 849 849 849 849 849 849 848 848 848 848 848 847 846 846 846 847 847 846 845 844 842 842 841 841 841 841 840 840 839 839 838
779 779 779 779 780 781 781 782 784 786 789 792 794 796 797 799 801 803 805 807 809 810 811 813 814 816 818 820 822 823 824 826 827 828 830 830 831 833 833 835 836 837 838 839 840 841 842 843 844 845 847 848 848 848 848 848 848 848 848 848 848 848 848 847 846 846 845 845 846 848 847 848 849 846 842 841 841 841 840 840 840 839 839 839 838
777 778 778 778 778 779 779 781 782 784 786 788 790 792 795 797 799 801 804 806 807 809 810 812 814 815 817 819 821 822 823 824 825 826 827 828 829 830 832 833 834 836 837 838 839 840 841 841 842 844 845 846 847 847 847 847 847 848 848 847 848 847 847 847 846 845 845 844 845 846 848 850 850 846 843 842 841 840 841 840 839 839 838 838 838
774 775 775 775 776 777 779 780 781 782 783 785 787 789 792 795 797 799 802 804 806 808 809 811 813 814 815 817 818 819 821 821 822 823 825 826 827 829 830 832 833 834 835 836 837 838 839 840 841 842 843 844 845 845 845 846 846 847 847 847 847 847 846 846 845 844 844 844 844 844 846 847 846 844 845 845 842 840 840 840 840 839 839 838 838
772 773 773 774 775 777 778 779 779 780 781 783 785 788 790 793 795 797 800 802 804 806 808 809 811 812 813 814 815 817 818 818 820 822 823 825 827 828 829 830 832 833 834 835 836 837 837 838 839 840 841 842 843 844 844 845 845 846 846 846 846 846 845 845 845 844 844 843 843 843 843 843 843 843 845 846 845 843 840 840 840 839 839 838 837
770 771 771 772 773 774 775 776 778 782 785 787 788 789 790 792 794 796 798 800 802 804 806 808 809 811 812 813 814 815 816 817 818 821 823 824 826 827 828 829 830 831 832 833 834 835 835 836 837 838 839 840 841 842 843 844 844 844 845 845 845 844 844 844 844 844 843 843 843 843 843 842 842 842 843 844 846 845 842 839 839 839 838 837 837
766 767 767 768 769 770 772 774 777 780 783 786 789 790 790 791 793 794 796 798 800 802 804 806 807 809 810 811 813 814 815 816 818 820 822 823 824 825 826 827 829 830 830 831 832 833 833 834 836 836 837 838 839 840 841 842 843 843 843 843 843 843 843 843 843 843 843 843 842 842 842 842 842 842 842 842 843 844 843 840 838 838 837 836 836
763 764 764 765 766 768 770 773 775 776 777 780 784 787 789 790 791 792 794 796 798 800 801 803 806 807 809 810 811 813 814 816 817 819 820 822 823 824 825 826 827 828 829 830 830 831 832 833 834 835 836 836 837 838 839 840 841 841 842 842 842 842 842 842 842 842 842 842 842 842 842 842 842 841 841 842 841 842 842 839 837 837 836 835 835
762 763 763 765 767 769 771 772 774 775 776 779 782 784 786 787 789 790 792 794 795 797 799 801 803 805 806 808 809 811 812 814 816 817 819 820 821 822 823 825 826 827 827 828 829 829 830 831 832 833 834 835 836 836 837 838 839 840 840 841 841 841 841 841 841 841 841 841 841 841 841 841 841 840 840 840 840 840 840 838 836 836 835 834 834
762 763 764 766 769 770 771 772 773 775 776 778 780 781 783 784 786 788 790 792 793 795 796 798 800 802 804 805 807 809 811 812 813 815 817 818 819 820 822 823 824 825 826 826 827 827 828 829 830 831 832 833 834 834 835 836 837 838 839 839 840 840 840 840 840 840 840 840 840 840 840 840 839 839 839 839 839 838 838 837 835 835 835 834 833
762 763 764 766 768 769 770 771 772 774 775 776 778 779 781 782 784 785 787 789 790 792 793 795 797 798 800 802 804 807 809 810 811 813 814 816 817 819 820 821 822 823 823 824 824 825 826 827 828 829 830 831 832 833 834 834 835 836 837 837 838 838 839 839 839 839 839 839 839 839 838 838 838 838 838 838 837 837 837 836 835 835 834 833 832
762 763 764 765 766 766 768 769 771 772 774 777 778 778 779 780 781 782 783 786 788 789 791 792 794 795 797 799 802 804 806 808 809 810 812 814 815 816 817 818 819 820 821 822 823 824 824 825 826 827 828 829 830 831 832 833 833 834 835 836 836 836 837 837 837 837 837 837 837 837 837 837 837 837 837 837 837 836 835 835 834 834 834 833 832
761 762 763 763 764 765 767 768 769 770 772 775 778 778 778 778 780 780 781 783 785 787 789 791 792 794 796 798 800 802 803 805 807 808 810 811 813 814 815 816 816 818 819 820 821 822 823 824 825 826 827 828 829 829 830 831 832 832 833 834 834 835 835 835 836 836 836 836 836 836 836 836 836 836 836 836 836 835 834 834 833 834 835 834 832
762 762 763 763 763 764 766 767 768 768 770 772 774 776 777 777 779 780 781 783 785 786 788 789 791 793 794 796 798 800 802 803 804 806 807 809 810 812 812 813 814 815 817 818 819 820 821 822 823 824 825 826 827 828 828 829 830 831 832 832 833 833 833 834 834 835 835 835 835 835 835 835 835 835 835 835 834 834 834 833 833 833 835 835 834
762 762 762 761 761 763 765 766 766 766 767 769 770 772 775 776 778 779 781 783 784 785 787 788 790 792 794 795 797 799 800 801 802 803 805 806 808 810 810 811 812 814 816 817 818 819 819 820 821 822 824 824 825 826 827 828 828 829 830 831 831 832 832 832 833 833 833 834 834 834 834 834 834 834 833 833 833 833 833 832 832 832 833 835 835
762 761 760 760 760 762 764 765 765 764 765 765 766 769 771 774 776 778 780 782 783 784 786 788 789 791 792 794 795 797 799 800 801 802 804 805 806 807 808 809 810 812 814 815 816 817 818 819 820 821 822 823 824 825 826 826 827 828 828 829 830 830 831 831 831 832 832 833 833 833 833 833 833 832 832 832 832 832 832 832 832 831 831 832 833
764 761 760 759 759 760 762 763 764 763 764 764 765 768 770 772 774 776 778 780 782 784 785 787 788 789 790 792 794 795 797 799 800 801 802 803 804 805 806 807 809 810 812 814 815 816 817 818 819 820 821 822 823 824 825 825 826 826 827 827 828 829 829 829 830 831 831 832 832 832 832 832 832 831 831 831 831 831 831 831 831 830 831 831 830
766 763 761 758 758 759 760 762 763 763 763 764 766 768 769 770 772 773 775 776 779 783 784 786 787 788 789 790 792 794 795 797 798 800 800 801 803 804 805 806 807 809 811 812 813 814 815 816 817 819 820 821 822 822 823 824 824 825 826 826 827 827 828 828 829 829 830 830 831 831 831 831 831 830 830 830 830 830 830 830 830 830 830 830 830
766 763 760 758 757 758 759 761 762 763 764 764 765 767 768 769 770 771 772 773 775 779 784 788 790 791 791 790 790 791 793 795 796 798 799 800 801 802 803 805 806 808 809 811 812 813 814 815 816 817 818 819 820 821 822 822 823 824 824 825 825 826 827 827 827 828 828 829 829 829 830 829 829 829 829 829 828 829 829 829 829 829 829 829 829
766 763 760 758 757 758 760 761 761 762 763 763 764 765 766 767 768 770 772 773 775 779 783 787 791 793 793 792 791 790 791 793 794 796 797 798 800 801 802 804 805 806 808 809 810 811 813 813 814 815 816 818 819 819 820 821 821 822 823 823 824 825 825 826 826 826 826 827 827 828 828 828 828 828 828 828 827 827 827 827 827 827 828 828 828
766 763 761 759 758 758 759 760 760 761 761 762 763 764 764 765 766 768 770 772 776 779 780 781 783 784 787 790 791 789 789 790 792 793 794 796 797 799 800 802 803 805 806 807 809 810 811 812 813 814 815 816 817 817 818 819 819 820 821 821 822 823 824 824 824 825 825 825 825 825 826 826 826 826 826 826 826 825 825 825 825 826 826 826 826
768 765 762 760 760 759 759 759 759 760 761 761 762 763 763 764 765 767 769 771 775 778 778 777 776 778 782 786 788 788 789 790 790 791 792 793 795 796 798 799 801 802 804 805 807 808 809 810 811 812 813 813 814 815 816 817 818 818 819 819 820 821 822 822 823 823 823 823 823 823 824 824 824 824 824 823 823 823 823 823 823 823 823 823 823
771 768 765 763 762 762 761 761 761 760 761 762 762 763 763 763 765 767 770 774 776 776 776 775 776 780 784 784 785 786 788 789 789 789 790 791 793 794 796 797 799 800 802 803 805 806 808 808 809 810 810 811 812 813 814 815 816 816 817 817 818 819 820 821 821 821 821 821 821 821 821 822 822 821 821 821 821 821 821 821 821 821 821 821 820
775 772 769 767 765 764 763 763 763 763 763 763 763 763 763 764 766 770 775 778 777 773 773 776 780 784 784 781 781 781 782 785 786 787 788 790 793 795 796 798 798 799 800 801 803 806 807 807 807 807 808 808 809 811 811 812 813 814 815 816 816 816 817 818 820 820 820 819 819 819 819 819 819 819 819 819 819 819 819 818 818 818 818 818 818
778 775 772 770 767 766 764 764 764 764 764 764 764 764 764 766 770 774 777 777 772 768 769 774 780 782 780 777 777 779 780 782 784 786 786 788 791 794 796 797 797 796 796 797 799 802 804 804 804 804 805 806 807 808 809 809 810 812 813 813 813 813 813 815 817 818 818 817 817 817 817 817 817 817 817 817 817 816 816 816 816 816 816 816 816
779 776 774 772 770 768 765 764 763 763 764 764 764 764 764 768 772 774 773 769 764 764 769 772 774 775 774 773 774 776 778 779 781 783 784 785 787 790 792 793 793 792 793 795 796 798 799 800 801 801 802 804 804 805 805 806 807 808 809 809 809 808 809 812 815 816 815 815 815 815 815 814 815 815 815 815 814 814 814 815 815 815 815 815 815
781 779 776 774 772 769 767 766 764 763 763 763 764 764 765 770 772 770 767 764 763 765 769 770 771 771 770 770 772 774 775 777 779 780 781 783 785 786 788 788 789 790 791 792 794 795 796 797 798 799 800 801 801 801 802 803 804 804 805 805 805 805 806 808 811 812 813 813 813 813 812 812 813 813 813 812 812 813 813 813 813 813 813 813 813
784 781 778 775 772 770 768 767 765 764 763 762 763 762 765 771 772 767 764 763 763 765 767 769 770 770 769 769 770 771 773 776 777 778 779 781 782 783 784 785 786 787 787 788 790 791 793 794 795 796 797 798 798 798 799 800 801 801 802 802 803 802 802 803 805 807 809 810 810 811 810 810 811 811 810 810 810 811 812 811 811 811 811 811 811
786 783 779 776 773 770 768 767 766 766 764 763 762 761 764 769 770 766 764 763 763 764 767 770 769 767 768 769 768 769 770 773 774 775 777 778 778 780 781 782 783 783 784 785 787 788 789 790 792 793 794 794 795 796 797 798 799 799 799 799 800 801 802 802 803 804 806 807 808 809 808 808 809 809 808 808 808 809 810 809 809 809 809 810 810
786 783 780 776 774 771 768 767 766 766 765 763 763 761 761 764 765 764 763 763 762 764 767 769 767 766 768 769 768 767 768 770 772 773 774 775 776 778 779 780 780 781 781 782 783 785 787 788 789 791 791 792 793 794 795 796 797 797 797 797 798 799 801 802 802 802 804 805 806 807 807 807 807 807 806 806 807 807 807 807 807 807 807 807 807
787 785 781 778 775 772 769 767 766 765 765 763 763 761 760 760 760 760 761 761 761 764 768 768 764 764 767 768 767 766 767 769 772 773 773 774 775 776 777 777 777 779 780 781 782 783 785 787 788 789 790 790 791 792 793 794 795 795 796 796 797 798 799 800 799 800 801 803 804 804 805 805 806 805 804 805 805 805 806 806 806 806 805 805 805
787 785 782 778 776 772 770 768 765 764 763 762 761 761 759 758 758 757 758 759 760 763 767 767 762 762 765 766 766 766 767 769 772 774 774 774 774 774 774 775 776 777 778 779 781 783 784 785 787 788 788 789 789 790 792 792 793 793 794 795 796 797 797 797 797 798 800 801 802 802 803 804 804 804 803 803 804 804 804 805 805 805 804 804 804
787 785 782 780 777 773 770 767 765 763 762 760 759 759 758 757 756 756 756 757 759 761 764 764 761 761 763 764 765 766 767 768 772 776 776 775 774 773 772 773 773 774 775 778 781 783 784 784 785 786 787 788 788 789 790 791 791 792 793 794 795 796 796 796 796 797 798 800 800 801 802 802 802 802 802 802 802 803 803 803 803 804 803 803 803
787 785 784 781 778 774 771 768 766 763 761 759 758 757 757 756 756 756 756 756 758 759 760 761 760 760 761 763 764 766 766 767 771 775 776 774 773 772 771 771 771 772 775 777 780 782 782 783 784 785 785 786 788 789 790 790 791 791 792 793 794 795 796 796 796 797 798 799 799 800 800 800 800 801 801 801 801 801 802 802 802 802 802 802 802
788 787 784 781 778 775 772 769 766 764 761 759 757 756 756 755 755 756 756 756 757 758 759 759 758 758 759 760 762 764 766 767 768 771 772 771 771 771 772 772 772 774 775 777 778 779 780 782 783 784 784 785 787 789 789 790 791 792 793 793 794 795 795 796 796 797 797 798 798 798 799 799 799 799 799 799 800 800 800 801 801 801 801 801 801
788 786 783 779 777 774 772 770 766 764 762 759 757 756 756 755 755 757 758 758 758 758 759 759 758 757 757 758 760 762 764 765 765 766 767 768 769 771 772 772 773 774 775 776 777 778 779 781 782 783 783 784 786 788 789 791 792 793 793 794 794 794 794 795 795 796 796 796 797 797 797 797 798 798 798 798 798 799 799 800 800 800 800 800 800
786 784 781 778 776 774 772 770 767 765 763 760 758 757 756 756 756 758 761 761 759 759 759 759 759 757 756 757 759 760 761 762 763 763 764 766 767 769 770 772 773 774 775 776 777 777 778 780 781 782 783 784 786 788 789 791 792 793 794 794 793 793 793 794 794 794 794 794 794 795 795 795 796 797 797 797 797 798 798 798 799 799 799 799 799
784 782 780 777 775 773 771 769 767 766 764 761 760 758 757 757 757 758 760 760 759 760 760 759 759 758 756 756 757 759 760 761 761 762 763 765 766 767 768 770 771 772 774 775 776 777 778 779 780 781 783 784 786 787 789 791 792 793 793 793 793 793 792 792 792 792 792 792 792 793 793 794 795 796 796 797 797 797 797 797 797 797 797 797 797
783 781 779 776 775 773 772 770 768 767 764 762 761 759 759 759 758 758 758 758 758 759 759 759 758 757 756 755 755 757 759 759 761 762 763 764 765 766 767 768 770 772 773 774 776 776 778 779 780 782 783 785 786 788 789 791 791 792 793 792 792 791 791 791 791 791 791 791 791 791 792 792 793 794 795 796 796 796 796 796 796 796 796 796 796
782 780 778 776 774 772 772 771 769 767 765 763 762 760 759 759 759 758 757 757 757 756 757 757 757 756 756 755 754 755 757 759 760 761 762 764 765 766 767 768 770 772 773 774 775 776 777 779 780 782 783 785 786 788 789 790 791 791 792 791 791 790 790 790 790 791 791 790 790 791 791 792 793 793 794 795 795 795 795 795 794 795 794 794 794
781 779 778 776 774 772 771 770 769 767 766 764 762 761 759 759 758 757 757 757 756 755 755 755 755 755 755 755 754 754 755 757 759 760 762 763 764 766 768 769 771 772 773 774 775 776 777 778 779 781 782 784 786 788 789 790 791 791 791 791 790 790 789 789 790 790 791 790 790 790 791 791 792 792 793 793 793 793 793 793 793 793 793 793 793
780 778 777 775 774 772 770 769 769 767 766 764 763 761 759 758 758 756 756 755 755 754 754 753 753 754 754 754 754 754 754 756 758 759 761 762 764 765 767 769 771 772 773 774 775 775 776 777 778 780 781 783 785 787 788 789 790 790 791 790 790 789 789 789 790 790 790 790 790 790 790 790 791 791 791 792 792 792 792 792 792 792 792 792 792
778 777 776 774 773 771 770 769 768 767 766 764 763 761 759 758 757 755 754 754 754 754 753 752 752 752 753 753 753 753 753 755 756 758 760 761 762 764 766 767 769 771 772 773 774 775 776 777 778 779 780 782 784 785 787 788 789 790 790 790 790 789 789 790 790 790 790 790 790 790 790 790 790 790 791 791 791 792 792 792 792 792 792 791 791
776 775 774 773 771 770 769 768 767 766 765 764 762 761 759 758 756 755 753 753 753 754 754 753 752 751 752 752 752 752 752 753 755 757 759 760 762 763 764 766 768 770 771 773 774 775 776 777 778 779 780 781 782 783 785 786 787 788 789 789 790 789 789 790 791 791 791 791 791 791 791 790 790 791 791 791 791 791 791 791 791 791 791 791 790
775 774 773 772 770 768 768 767 766 766 765 763 762 761 759 758 756 754 753 753 753 753 754 754 752 751 752 752 752 751 751 752 754 756 758 760 761 762 764 766 767 769 771 772 773 774 775 776 777 778 779 780 781 781 782 783 785 786 787 788 789 790 790 791 791 792 792 792 792 792 792 791 791 791 791 791 791 791 791 791 791 790 790 790 789
774 772 772 771 769 767 766 765 764 764 764 763 762 760 759 757 756 754 753 753 753 753 754 754 752 751 752 753 753 752 751 751 754 756 758 759 760 762 763 765 766 768 770 771 772 773 774 775 776 777 778 779 779 780 780 781 782 784 785 787 788 789 791 791 792 793 793 793 793 793 792 792 792 791 791 791 791 791 790 790 790 790 789 789 789
772 771 770 769 767 765 764 763 762 762 762 762 761 760 758 757 756 754 753 753 753 754 754 754 752 751 752 752 753 753 751 751 752 755 757 758 760 761 762 764 766 767 769 770 771 772 773 775 775 776 777 777 778 778 778 779 780 782 783 785 787 788 790 791 792 793 793 793 793 793 793 792 792 792 791 791 790 790 790 789 789 789 789 789 789
770 770 768 767 765 764 762 761 760 759 760 760 759 758 757 756 756 755 754 753 753 753 753 753 752 751 751 752 752 752 751 751 752 753 755 757 759 760 762 763 765 767 768 769 771 772 773 773 774 775 776 777 777 777 778 778 779 780 781 783 785 787 789 791 792 793 793 793 793 793 793 792 792 792 791 790 790 790 789 789 789 789 789 789 788
769 768 767 765 763 762 760 759 758 757 757 758 758 757 756 756 755 755 755 753 752 752 753 753 753 752 751 751 751 751 751 751 751 752 754 756 758 759 761 762 764 765 767 768 769 770 772 772 773 774 775 776 776 777 777 778 778 779 780 782 783 786 788 789 791 792 792 792 793 792 792 792 791 791 791 790 790 789 789 789 789 789 789 789 788
Wind_Speed
10 16 19 22 24 25 26 26 25 26 27 27 27 26 26 25 25 25 25 25 26 27 27 26 25 23 22 22 22 22 21 20 20 19 19 18 18 18 18 17 17 17 16 16 14 14 13 11 10 8 7 8 7 7 6 5 4 4 3 4 4 5 6 7 7 9 9 7 6 5 4 4 3 3 5 6 5 5 4 4 3 4 5 5 3
5 10 14 18 20 23 26 26 26 26 27 28 28 27 27 26 26 26 25 25 27 28 28 27 26 24 23 23 23 22 21 21 20 20 19 19 18 18 18 18 18 18 18 17 16 16 15 14 13 11 9 9 8 7 6 6 5 5 5 6 6 6 7 8 8 7 5 3 4 4 3 4 2 0 3 5 5 5 5 5 4 5 5 5 3
5 7 10 15 17 20 23 25 26 27 27 29 28 27 27 26 27 27 26 26 27 28 28 27 25 24 22 22 22 21 21 20 19 18 18 18 18 18 18 19 19 19 19 19 18 17 17 17 16 13 11 10 9 8 8 7 7 6 7 8 7 7 7 8 8 6 5 3 2 2 1 2 1 1 5 6 4 4 5 5 5 6 6 5 4
7 7 8 11 15 18 21 23 24 24 27 29 29 27 26 27 27 27 27 27 27 27 28 26 24 22 21 20 19 19 19 18 18 19 19 19 19 18 18 18 19 19 18 19 20 20 20 19 18 16 14 13 12 11 10 10 9 8 8 8 7 7 7 7 7 7 6 4 1 0 1 1 0 2 6 6 2 3 5 6 6 6 6 6 5
9 9 8 10 13 17 20 22 23 23 26 30 31 30 28 27 27 28 28 28 28 27 27 26 24 22 21 19 17 16 17 16 16 19 21 20 20 19 18 17 18 17 17 18 20 22 22 22 21 20 18 17 16 15 13 12 10 9 8 6 6 6 7 7 8 7 6 5 3 1 1 0 0 2 5 3 2 5 6 5 5 6 7 6 6
9 10 10 11 14 17 18 19 22 24 27 30 32 32 31 29 27 27 28 28 28 28 26 26 25 24 22 21 19 18 18 19 19 20 21 21 20 19 17 17 17 18 18 19 20 21 22 22 22 21 20 19 19 17 15 13 12 10 8 7 6 6 7 8 9 7 5 4 5 5 3 3 3 2 2 1 4 6 5 5 6 6 6 7 7
8 8 9 11 13 15 16 20 23 24 26 29 30 30 30 29 27 27 28 29 29 28 27 26 26 25 24 24 23 22 22 23 23 22 21 21 20 19 18 18 19 20 20 20 21 21 22 22 21 20 19 19 19 19 17 15 13 11 10 9 8 7 7 8 8 6 3 3 3 4 5 6 7 5 2 1 3 4 4 6 6 5 6 7 7
9 9 9 11 14 16 19 22 21 15 13 16 20 25 28 28 27 27 27 29 30 29 29 28 28 27 26 25 25 25 24 24 23 22 21 20 20 20 19 19 20 21 21 21 21 21 22 22 21 20 19 17 18 19 18 16 13 12 11 11 9 8 8 7 7 6 4 3 2 2 2 3 5 5 4 4 2 1 4 4 3 5 7 6 5
10 11 11 12 16 21 22 21 19 17 17 19 20 21 24 27 27 26 27 29 30 30 30 30 30 29 28 27 26 26 26 24 23 22 22 21 21 21 20 19 20 21 21 20 20 20 21 22 21 20 19 18 17 18 18 16 13 12 12 12 11 9 8 6 7 7 5 4 2 2 2 2 2 3 4 6 4 2 2 2 3 6 7 5 4
10 11 11 14 19 22 21 19 21 25 29 30 27 23 24 27 27 27 27 29 30 31 31 31 31 31 30 29 28 28 27 25 24 23 23 22 23 23 23 21 21 21 21 20 20 20 20 21 22 20 19 18 17 17 16 15 13 13 12 13 13 10 8 6 7 7 6 5 5 4 4 3 3 3 5 6 4 3 3 3 5 5 5 5 3
9 8 9 11 15 16 17 19 21 25 27 27 26 24 26 28 28 28 28 30 31 31 32 33 33 32 32 31 30 30 29 27 26 25 24 23 23 25 25 23 22 22 22 21 21 20 19 20 21 20 18 17 16 16 15 14 14 14 13 13 13 11 8 6 7 7 6 7 6 6 6 5 4 4 4 5 4 4 3 4 5 5 6 6 3
7 7 6 7 8 10 15 17 18 22 24 24 24 24 26 28 29 29 29 30 32 32 33 33 34 34 33 33 32 31 30 29 29 28 27 26 25 25 24 24 24 23 22 22 22 20 19 21 21 20 18 17 17 16 16 15 14 15 13 12 12 11 9 7 7 7 7 8 7 6 6 5 5 5 5 5 5 5 4 4 5 5 5 5 5
6 6 6 5 6 9 14 16 18 21 23 24 23 23 25 27 29 30 30 32 33 33 34 34 34 35 34 33 33 33 32 31 31 30 29 29 27 25 24 25 25 25 24 24 23 20 20 21 21 20 19 18 18 17 16 15 15 15 14 12 10 11 10 9 9 8 8 8 7 7 6 5 5 5 5 6 6 6 5 4 5 4 4 5 7
6 6 6 6 7 10 14 16 17 19 21 22 22 22 24 26 28 31 32 33 34 34 34 34 34 35 35 35 34 34 33 33 33 32 31 30 29 27 26 26 26 26 26 25 24 22 21 22 22 21 20 19 18 18 17 16 15 15 15 13 11 11 12 12 11 10 9 9 9 8 7 6 6 6 6 8 8 7 7 6 4 3 4 6 5
5 5 5 6 8 11 13 14 17 19 22 24 23 21 22 25 27 30 32 33 34 34 34 34 34 35 35 35 35 35 35 35 35 34 33 32 31 30 28 27 27 26 26 25 24 23 22 22 22 21 20 20 19 19 18 17 15 15 15 14 13 12 13 13 12 11 11 11 10 10 9 8 8 8 8 9 9 9 9 9 6 3 2 3 3
4 5 5 6 8 11 13 14 17 20 24 27 27 24 23 24 25 27 29 30 32 33 33 34 34 34 34 35 35 35 35 35 34 33 32 32 31 30 28 27 27 26 23 22 21 22 22 22 22 22 21 21 20 20 19 17 16 16 16 15 15 14 14 13 13 12 12 11 10 10 10 10 10 10 10 10 10 10 10 10 9 7 3 1 1
4 5 5 6 8 11 14 16 18 21 24 27 30 29 26 24 23 24 25 27 30 33 33 33 33 32 33 34 34 35 34 34 34 33 31 30 29 27 26 26 26 25 23 20 19 19 19 20 22 23 23 22 21 20 19 18 17 16 15 15 15 15 15 14 14 14 13 12 11 11 11 12 11 11 12 11 10 10 10 11 10 10 7 3 0
3 4 5 5 7 11 14 17 20 23 26 29 31 32 29 26 24 24 24 26 29 31 32 32 32 32 32 33 33 34 34 33 33 32 30 29 28 27 25 24 25 25 23 21 19 18 18 19 21 22 22 22 21 20 19 17 17 16 15 15 15 15 15 15 14 14 13 11 11 11 12 12 12 13 13 12 11 10 10 11 11 11 10 8 5
3 3 4 5 7 11 15 18 20 23 25 28 29 28 28 28 26 24 24 24 25 27 29 31 31 32 32 32 33 34 34 33 32 32 30 29 29 28 26 25 24 25 24 23 21 20 19 20 21 21 21 21 20 19 18 17 16 15 15 15 15 15 15 15 15 14 12 11 11 12 12 13 12 12 11 11 10 10 10 10 11 12 12 11 11
4 4 5 5 7 12 16 18 21 24 25 26 25 24 25 26 26 25 26 26 25 25 27 28 30 30 30 30 32 33 33 32 32 31 30 29 29 29 28 26 25 25 25 24 23 21 20 20 20 21 21 20 19 18 17 16 16 15 15 15 15 15 15 15 14 13 11 11 12 12 12 12 11 10 10 10 10 9 10 10 11 12 12 12 13
5 5 6 6 7 11 14 17 20 22 23 24 24 24 24 25 26 27 28 29 29 25 22 19 20 23 27 29 31 32 33 33 32 32 31 30 29 28 28 26 25 25 24 23 22 21 20 19 19 19 20 19 18 17 16 16 16 15 15 14 14 14 15 15 14 12 11 11 12 12 12 11 10 11 11 11 10 10 10 11 11 11 12 12 13
6 6 5 6 7 9 11 14 16 19 21 23 23 24 24 24 26 27 26 27 25 21 18 17 17 19 24 27 29 31 32 32 31 31 31 30 29 29 27 26 25 24 23 22 21 20 19 19 18 18 18 18 17 17 16 17 17 16 16 15 14 14 15 15 14 13 12 12 12 13 12 12 11 12 12 12 11 10 9 10 10 10 12 12 12
9 7 5 4 5 7 10 12 15 17 19 22 23 24 24 25 26 26 26 26 24 21 22 25 27 29 31 31 30 31 31 31 31 31 32 31 30 29 27 26 25 23 22 21 20 19 19 18 18 18 18 18 18 17 17 17 16 16 15 14 14 15 15 15 15 14 14 13 13 13 13 13 12 12 13 12 10 10 9 10 11 11 12 13 13
9 8 6 5 4 3 6 10 13 15 16 19 21 23 24 24 24 25 27 26 24 22 24 30 34 33 32 31 28 25 24 26 29 31 32 32 32 31 29 27 25 23 22 21 20 19 18 17 17 17 18 18 18 17 17 16 16 16 15 15 14 14 15 16 16 15 15 15 14 14 13 12 12 12 12 11 10 10 10 10 11 11 12 14 15
10 9 8 7 6 4 2 5 9 12 14 16 18 21 22 23 24 26 23 18 19 22 25 29 30 26 27 28 27 24 23 24 27 29 30 28 26 26 27 26 24 22 21 19 18 17 16 16 17 17 17 17 17 17 17 17 17 17 16 16 15 14 14 16 17 17 16 16 15 14 12 11 12 12 12 11 10 10 10 11 11 11 11 12 14
11 10 9 8 6 5 6 5 6 9 11 13 16 18 19 21 22 16 11 12 20 27 28 26 22 22 29 33 31 30 29 28 28 25 22 20 18 17 16 16 18 18 17 16 16 16 15 15 15 15 15 15 15 15 15 15 16 17 16 16 16 15 15 16 19 19 17 15 14 13 12 12 12 12 12 11 10 10 11 12 12 11 11 11 12
10 9 8 8 7 6 7 7 6 7 8 12 15 16 18 17 9 5 9 15 27 33 31 27 24 26 33 35 32 30 26 24 23 19 17 19 19 17 15 15 17 20 20 20 18 15 14 13 12 11 12 12 12 14 15 15 15 16 16 16 16 15 15 16 19 19 16 13 13 12 12 12 12 12 11 11 11 12 12 12 12 11 11 11 12
11 11 10 9 8 7 7 8 9 8 8 12 13 15 17 11 5 7 13 23 31 31 29 28 30 31 32 32 30 28 25 23 23 23 23 21 17 17 19 19 19 19 18 17 15 12 11 11 10 10 10 11 12 14 16 16 16 17 17 17 16 12 11 14 18 18 15 13 13 13 13 14 13 12 12 12 13 12 11 11 10 10 10 11 11
12 12 11 10 10 8 8 11 11 9 9 10 11 14 14 4 4 10 19 24 27 26 24 26 28 29 29 27 25 25 26 24 24 25 23 17 14 18 21 18 16 15 14 14 13 13 13 12 11 10 11 12 13 15 15 16 16 15 15 15 14 12 12 14 16 16 14 14 14 14 14 14 13 12 12 13 13 11 11 11 10 9 9 10 10
12 12 12 11 10 10 10 12 13 12 12 11 10 12 9 2 7 17 21 21 23 22 19 18 21 24 25 24 22 23 23 22 23 24 21 15 16 21 21 19 18 17 13 12 13 15 15 14 13 12 12 14 15 15 14 14 14 13 12 12 12 14 16 15 13 13 14 14 15 15 14 13 12 11 11 12 12 11 11 11 11 10 10 10 10
11 11 12 11 11 12 12 13 14 16 17 15 12 11 7 2 9 17 20 19 19 18 15 13 17 23 22 20 20 20 19 19 21 22 19 15 16 19 19 18 18 16 14 14 15 16 16 15 14 14 15 16 16 14 13 13 13 13 13 12 12 15 16 14 11 12 12 13 14 14 14 12 10 9 11 11 11 10 10 10 10 10 10 10 10
12 11 12 12 12 12 13 15 16 17 18 19 17 13 9 5 7 14 18 17 17 16 14 13 18 22 19 18 18 17 17 18 18 18 16 14 15 16 16 15 14 14 14 14 14 15 14 14 14 16 17 18 17 15 14 14 13 13 14 14 13 14 13 12 11 11 11 12 13 12 11 10 8 8 9 10 9 9 9 8 8 9 11 11 11
11 11 12 12 12 13 15 17 18 18 18 19 19 16 12 8 7 12 14 16 16 13 12 12 18 19 18 18 16 14 16 16 16 16 14 13 14 14 14 13 11 11 11 11 12 12 13 15 17 18 18 17 16 15 13 11 11 11 13 14 13 11 10 11 11 10 10 10 9 9 9 8 7 7 8 7 8 8 8 8 8 8 8 8 9
9 10 11 11 13 16 18 19 19 19 20 20 19 16 13 10 9 10 11 14 15 11 12 13 17 15 16 16 14 15 16 15 14 14 14 14 15 15 14 11 9 9 9 9 11 13 15 17 17 16 14 13 13 11 9 8 8 10 11 12 11 9 8 9 9 9 8 8 8 7 8 8 8 8 8 8 8 8 8 8 7 7 7 7 7
10 10 10 12 15 18 20 20 20 21 21 21 20 17 13 10 9 9 10 12 14 12 12 15 15 14 16 17 16 17 17 13 12 13 14 15 15 14 12 9 8 8 8 9 13 15 16 14 13 11 10 9 9 8 7 7 7 8 8 9 8 7 6 6 7 7 7 8 8 8 10 11 11 11 10 9 9 8 8 7 6 5 5 6 5
10 10 12 15 17 19 20 21 21 21 20 20 19 16 12 10 10 10 10 11 13 14 15 17 17 17 18 19 19 20 18 14 13 14 17 16 13 12 11 8 7 7 8 11 14 15 13 11 10 10 10 10 8 7 7 7 7 7 8 7 7 7 7 7 7 7 8 8 9 11 12 13 13 13 12 11 10 9 7 6 5 4 3 3 3
11 13 16 18 19 19 20 22 21 21 19 18 18 15 12 9 9 11 12 12 14 15 17 18 18 17 17 17 18 19 18 15 14 15 14 12 10 10 9 8 7 8 9 11 12 12 11 10 11 12 11 10 8 7 7 8 9 9 9 9 8 7 7 6 6 7 8 9 10 10 11 12 12 12 11 11 10 9 7 6 5 5 4 5 6
13 13 16 19 20 19 20 21 20 21 20 18 17 15 12 9 9 10 12 13 14 15 17 18 18 17 16 15 17 18 16 14 13 12 11 9 8 8 7 7 7 7 7 8 9 10 9 9 10 11 9 7 8 8 8 9 9 8 8 7 6 6 5 6 7 8 10 10 10 8 9 10 11 10 10 11 11 9 8 7 6 7 7 9 9
19 16 15 17 20 20 20 20 19 19 20 18 17 16 12 9 7 6 10 13 14 15 17 18 18 18 16 15 16 17 15 13 12 11 10 9 8 7 6 5 5 5 5 5 6 8 8 8 8 6 5 6 8 8 8 9 8 6 5 5 5 6 7 8 10 11 12 12 11 9 8 8 9 9 9 9 9 8 7 6 7 8 10 11 11
21 19 16 17 19 19 18 19 18 17 16 16 16 16 13 11 8 4 7 12 15 16 19 19 18 17 16 16 16 15 13 12 11 10 8 7 7 6 5 5 5 4 3 3 3 5 5 5 4 3 4 5 8 10 10 9 7 5 5 6 6 7 8 9 10 11 10 10 10 10 8 8 8 8 7 6 6 6 7 7 8 9 11 12 12
22 21 17 17 19 18 16 16 15 13 13 13 13 13 12 11 11 7 5 8 12 16 18 18 17 16 15 15 15 14 12 11 10 8 6 5 6 6 7 8 7 5 4 5 5 4 4 4 4 4 4 5 7 9 8 6 5 5 5 6 7 8 8 7 7 6 5 6 8 9 8 8 8 7 6 6 7 7 8 10 11 12 12 12 12
24 23 20 17 18 18 17 15 13 11 11 11 10 8 8 8 9 10 9 9 9 11 14 16 15 14 13 13 13 13 12 10 8 6 5 5 6 6 8 8 8 7 7 8 7 5 5 5 5 6 6 6 8 7 5 4 4 5 6 7 8 8 7 6 5 4 4 6 8 9 8 7 7 6 6 8 9 10 10 10 10 10 9 8 9
21 22 22 19 17 18 17 15 14 11 10 10 9 6 5 5 6 7 8 9 9 9 10 11 11 11 11 10 11 11 11 9 7 6 5 6 7 7 8 8 8 8 9 9 7 6 6 6 7 8 8 8 8 7 5 4 4 5 6 7 8 8 7 6 6 6 6 7 8 8 7 6 6 6 7 8 8 7 6 5 4 3 3 4 5
19 22 23 20 18 17 18 17 14 11 9 9 8 8 7 7 6 6 5 5 6 7 8 8 8 8 9 10 10 10 9 8 7 6 7 8 9 9 9 8 8 9 9 8 7 6 7 7 8 9 9 9 9 7 6 6 5 5 6 7 8 8 6 6 8 9 8 8 8 8 7 7 7 7 6 5 4 3 2 2 0 1 2 3 4
21 22 22 21 19 18 18 17 15 11 9 8 8 8 9 11 11 9 7 5 4 5 7 8 8 8 9 10 11 10 9 8 7 7 8 9 10 10 10 9 9 9 9 8 7 7 8 8 9 10 11 10 10 8 8 7 6 5 6 7 7 6 5 5 7 8 8 8 8 7 7 6 6 5 5 5 4 3 2 0 1 2 3 4 5
22 22 22 22 21 19 17 16 14 11 9 9 9 9 9 11 12 11 9 6 3 3 6 8 9 9 10 11 12 11 10 9 8 7 8 8 9 10 10 10 10 10 9 8 8 8 8 9 10 11 11 11 11 9 9 8 7 6 6 6 6 5 3 3 4 5 6 6 5 5 5 5 5 6 6 6 5 3 2 1 2 3 4 4 5
22 23 23 22 21 19 17 16 15 12 10 9 9 9 9 10 11 11 9 6 2 2 4 6 7 8 9 10 11 12 12 10 9 9 8 8 8 8 9 10 10 9 8 7 7 8 9 10 11 11 12 12 11 10 9 9 9 8 7 6 5 4 2 3 4 4 4 4 4 4 4 5 5 5 6 5 5 4 3 2 2 3 4 4 4
24 25 23 20 19 19 18 17 16 13 10 8 8 9 9 9 11 12 11 7 5 3 3 4 5 7 8 9 10 11 12 12 11 9 8 8 7 7 7 8 9 8 7 7 7 8 9 10 11 12 12 12 11 11 10 9 8 9 8 8 7 5 4 4 5 5 5 5 5 5 4 5 5 4 5 5 5 5 3 2 2 3 4 4 4
24 24 22 20 20 20 19 18 18 16 11 8 7 8 8 8 10 12 12 10 7 5 3 1 3 6 7 8 10 11 12 13 13 11 9 8 7 7 7 7 7 7 7 7 7 7 8 9 10 12 12 12 12 12 10 7 7 8 9 9 9 9 8 7 7 7 7 8 8 7 7 6 6 5 5 5 6 6 4 3 2 3 3 4 4
23 23 22 22 21 21 19 18 18 18 13 8 7 9 9 8 8 8 9 9 8 6 5 3 1 5 6 8 10 11 11 12 13 12 11 9 8 7 7 7 6 7 7 7 7 8 8 8 8 10 11 12 12 11 9 7 7 7 8 9 10 10 11 10 10 10 10 10 10 10 10 8 7 7 6 6 7 7 6 5 4 3 3 4 4
23 21 20 22 23 22 20 18 18 18 15 10 6 9 10 9 7 6 7 8 8 7 6 4 1 3 7 9 10 10 11 12 12 12 11 10 9 8 7 6 6 6 6 7 8 8 9 8 7 7 8 10 11 11 9 8 7 7 8 9 10 11 12 12 12 12 13 12 12 12 12 10 9 8 8 7 8 8 7 7 5 4 4 4 4
Wind_Direction
203 203 202 203 204 202 203 203 197 194 193 192 192 193 196 197 199 204 209 210 207 207 209 210 211 212 216 219 223 225 227 230 233 234 234 234 233 234 235 232 230 229 229 230 230 232 233 234 234 235 261 274 255 236 229 221 217 223 247 281 299 310 311 313 317 311 307 314 323 325 343 347 317 278 273 270 277 279 273 290 316 334 344 341 305
181 196 199 198 199 196 197 198 194 189 187 189 189 191 194 196 198 202 206 208 208 209 210 211 211 210 211 216 221 224 226 230 233 234 234 236 236 236 236 235 232 230 231 231 231 232 234 235 236 233 245 258 241 218 213 210 213 229 261 288 298 303 303 307 316 308 296 315 331 325 359 16 14 351 316 292 269 265 266 277 304 331 353 0 0
180 189 192 194 194 192 193 194 194 188 185 188 190 188 190 194 198 202 204 207 210 212 213 213 214 213 214 218 221 224 227 231 233 234 236 239 240 239 237 237 235 233 232 233 232 233 236 238 240 237 236 243 233 212 209 214 228 250 272 286 291 294 297 304 310 298 272 278 329 325 349 9 9 32 349 327 279 269 277 284 301 321 341 348 343
188 188 189 191 191 193 194 194 194 188 186 189 190 187 188 193 197 201 205 208 211 213 215 216 216 215 218 222 226 228 230 233 236 236 237 240 241 239 236 234 234 234 234 234 234 234 236 239 243 243 239 238 231 220 221 227 240 256 269 279 283 290 299 306 308 300 276 257 265 99 163 8 313 319 338 335 299 292 293 293 304 315 322 323 317
185 186 189 191 193 196 197 196 194 191 189 190 192 191 191 194 197 201 206 210 213 216 217 217 216 215 216 219 225 228 229 231 236 236 236 238 240 237 233 231 233 234 235 237 237 237 240 242 247 250 248 242 234 229 229 231 240 249 256 267 278 290 301 304 304 305 290 255 231 209 144 59 229 313 330 325 311 312 300 289 303 315 313 305 301
188 189 191 193 196 198 199 198 195 195 196 196 197 197 196 196 197 201 206 210 214 217 217 216 215 214 212 211 213 216 220 224 228 230 232 233 234 232 231 232 235 237 239 240 240 241 243 246 250 253 255 249 239 235 234 234 240 245 246 253 271 291 301 299 297 304 299 260 245 247 253 257 257 307 347 324 313 311 294 288 298 306 307 297 289
195 197 196 194 194 193 197 201 200 200 201 200 200 199 199 200 199 201 206 210 213 215 216 215 215 214 214 212 212 212 216 221 224 226 229 231 232 232 233 235 238 241 243 244 245 244 245 248 252 256 259 253 242 239 239 239 242 246 245 250 265 285 294 293 291 292 284 258 252 254 256 260 263 271 261 271 323 314 295 300 297 294 301 299 287
192 196 197 199 197 196 200 202 201 198 200 204 205 204 202 201 202 204 207 210 212 213 214 214 214 215 216 215 214 215 219 221 222 224 228 231 234 234 236 240 243 244 246 250 250 248 246 247 251 256 258 254 244 240 241 243 245 246 245 249 262 275 283 285 278 271 264 260 259 253 264 271 268 263 248 246 270 305 303 305 303 310 311 300 280
192 195 196 198 200 202 203 199 191 188 195 208 216 215 208 204 204 206 208 210 211 212 213 214 214 215 216 214 214 217 222 224 223 226 230 234 236 237 239 244 244 243 247 251 252 250 248 246 248 252 253 252 246 240 239 241 246 248 249 252 260 270 275 270 262 261 264 268 273 269 266 258 257 255 236 228 223 245 286 293 309 321 324 311 278
197 201 199 199 203 204 201 194 191 195 199 205 211 214 211 208 206 206 208 210 210 210 211 212 213 214 215 214 214 216 221 224 225 228 231 234 237 237 240 243 243 242 245 249 251 250 248 244 245 248 251 252 246 238 235 236 243 250 257 259 259 263 268 259 253 258 266 276 284 281 269 248 231 219 214 219 222 230 243 272 291 304 317 319 303
200 204 205 203 204 201 196 194 196 200 202 203 205 207 207 208 207 207 209 210 210 210 210 211 211 211 214 215 215 217 219 220 222 224 227 229 232 234 236 238 240 242 244 246 250 250 245 241 241 246 250 248 240 233 232 236 245 253 262 265 258 256 261 256 247 253 266 275 284 289 283 269 249 234 230 231 225 221 228 267 286 290 293 298 300
194 201 201 192 186 186 193 198 197 198 202 204 205 204 203 204 205 207 210 210 210 211 210 210 210 210 213 216 218 219 219 218 219 221 223 225 230 233 235 235 236 239 241 243 247 247 241 237 238 243 245 240 234 232 237 244 250 253 257 262 258 253 250 243 245 259 271 273 280 289 288 278 267 259 259 256 248 246 242 257 287 297 288 288 303
188 195 193 183 176 181 191 195 193 195 201 206 207 204 202 204 204 206 209 211 211 212 212 212 211 211 213 215 218 219 219 218 218 220 222 225 231 235 237 237 235 235 237 240 243 244 240 235 236 239 239 235 234 236 244 250 252 250 251 255 258 253 243 242 255 267 269 269 275 282 282 281 277 270 273 274 268 259 244 247 277 280 264 286 307
186 190 188 189 190 188 192 192 190 192 196 206 213 207 204 207 206 207 210 212 213 214 214 214 214 214 215 216 218 219 219 220 221 222 224 228 233 237 241 243 239 237 237 239 243 246 243 236 235 238 238 238 239 243 250 254 252 249 249 252 255 254 250 252 260 263 263 267 273 275 276 278 274 272 282 284 273 259 245 239 251 262 260 274 294
183 189 189 196 198 192 191 189 188 188 189 201 217 215 208 210 210 210 211 211 213 214 215 216 216 217 217 218 219 221 222 224 226 228 229 231 233 238 244 246 243 241 241 242 244 248 247 239 235 238 240 242 245 249 254 254 251 249 250 252 251 251 254 256 258 259 265 271 272 270 271 272 269 272 284 287 276 265 260 252 239 230 269 278 282
183 189 191 197 199 193 189 185 189 191 188 196 211 218 215 214 214 214 215 213 214 215 217 218 219 219 218 219 221 223 225 227 230 232 232 232 233 236 244 246 243 242 242 242 242 245 247 241 237 240 243 246 250 253 255 254 251 250 252 255 254 252 253 256 257 260 267 274 270 267 270 271 271 273 281 284 277 270 269 264 246 223 213 271 305
192 199 195 195 196 193 189 185 191 196 194 196 207 215 217 216 216 217 218 217 217 218 219 220 220 220 220 221 222 225 226 229 231 232 232 231 231 235 243 246 242 239 238 238 239 240 243 242 241 243 246 248 251 252 253 253 253 253 254 258 259 257 256 257 258 260 268 272 266 265 271 274 274 275 278 281 279 275 273 272 263 243 224 208 272
210 204 198 200 200 195 191 190 195 201 203 205 209 213 215 216 217 218 221 222 222 221 221 222 222 221 222 222 224 226 229 231 234 234 234 233 232 235 240 242 240 237 236 237 238 239 240 242 243 245 247 248 250 251 251 252 252 253 257 261 262 261 259 257 257 261 267 267 263 267 274 276 276 276 279 277 274 274 276 279 279 267 246 229 222
272 230 217 210 202 199 195 194 199 204 209 212 213 212 213 215 217 217 222 227 229 227 224 224 224 223 223 224 226 228 231 234 236 236 236 236 235 236 238 240 239 237 237 238 239 239 240 242 244 245 246 247 248 250 251 252 253 255 261 266 267 263 259 258 259 262 265 263 263 270 274 275 275 275 277 275 270 270 276 282 284 277 264 249 238
288 264 248 233 216 207 201 199 202 206 210 214 215 214 213 214 214 214 219 225 231 234 230 227 226 226 225 225 227 230 233 235 237 236 237 239 238 238 239 240 240 238 238 239 239 239 241 243 244 245 245 246 248 251 254 255 256 258 264 270 270 265 261 260 261 260 261 262 264 272 275 273 271 270 272 273 270 270 276 282 284 280 273 263 250
297 268 249 242 233 217 208 207 208 209 211 213 215 216 217 216 214 215 218 222 227 231 232 236 239 235 233 230 228 230 233 236 237 237 238 240 240 241 243 243 243 241 241 240 239 240 243 245 246 246 246 247 250 255 257 256 256 259 263 268 268 266 264 263 261 258 259 261 263 270 275 273 269 270 274 276 274 271 273 274 276 275 272 267 255
329 301 265 246 237 224 214 212 212 212 213 214 216 218 219 218 218 220 223 225 227 225 223 237 252 250 246 243 236 231 233 235 236 236 238 241 242 244 246 246 245 244 244 242 242 244 247 249 249 250 250 251 255 260 260 258 258 259 261 263 265 266 266 264 261 261 264 265 265 269 275 276 274 273 276 279 277 273 272 270 269 269 267 266 262
351 345 318 287 261 232 213 210 214 215 216 215 216 218 219 221 221 222 225 227 227 224 220 227 238 240 240 242 241 236 233 232 233 236 238 241 243 246 247 247 246 246 246 246 248 249 251 251 253 255 256 258 261 263 263 260 258 256 256 259 263 266 267 265 262 267 272 271 271 273 277 279 278 277 275 276 277 273 271 272 271 266 260 261 265
357 357 349 354 343 274 215 212 216 217 220 220 218 218 221 222 220 219 222 223 222 222 223 227 233 234 232 234 238 240 239 237 236 237 239 242 244 245 246 246 246 247 247 248 249 250 252 254 256 259 261 264 265 263 262 260 256 255 254 256 261 266 269 268 266 269 274 275 275 276 277 278 281 280 276 275 275 270 269 274 272 262 253 256 261
1 359 359 5 3 357 311 247 229 223 224 223 223 224 224 224 223 222 219 215 217 222 225 229 230 228 228 231 234 239 244 245 244 242 241 243 245 245 246 246 245 246 247 248 248 249 253 256 258 262 264 265 265 263 262 260 257 254 252 253 256 261 267 271 272 274 274 274 276 276 276 278 280 278 274 272 270 268 271 275 270 258 248 251 256
357 359 4 358 354 358 345 316 271 249 237 230 229 229 228 230 231 223 199 199 225 233 231 228 226 225 228 230 229 232 237 240 244 245 243 244 250 252 253 250 246 245 245 247 251 254 258 261 261 262 262 262 263 264 263 260 255 252 252 256 261 264 265 269 274 276 274 272 273 272 274 277 275 274 273 271 266 268 274 272 263 255 249 250 251
352 356 1 356 355 348 337 332 304 275 257 246 240 233 232 233 223 141 153 200 226 232 226 220 220 224 229 231 230 230 231 235 240 244 247 247 248 252 262 264 256 249 245 247 250 249 251 257 258 257 256 255 256 258 258 256 254 254 258 261 263 265 266 267 270 271 270 269 269 268 271 271 268 269 273 272 266 264 268 266 261 255 248 247 247
353 355 353 351 349 339 332 328 312 294 275 262 254 247 242 231 128 131 193 216 225 224 216 212 214 218 226 233 236 233 233 236 239 245 249 244 237 242 250 255 253 248 244 244 240 230 232 244 248 248 249 247 246 248 249 251 254 257 260 259 255 254 261 266 267 265 263 266 267 267 267 267 267 268 269 270 267 262 263 265 263 257 252 251 252
350 349 346 343 339 333 332 326 318 310 292 278 271 264 256 221 158 218 226 232 234 226 216 213 213 216 222 228 232 234 237 240 241 248 249 236 225 233 237 239 243 242 242 240 230 221 227 236 237 242 247 245 244 244 243 246 250 253 257 256 247 238 239 246 251 255 259 265 267 266 266 268 270 269 266 267 266 264 266 267 262 259 259 257 254
341 339 337 338 335 331 332 330 327 325 313 299 288 281 278 214 221 237 238 241 241 231 217 212 217 223 225 224 226 233 240 245 250 255 253 238 231 233 231 234 241 242 242 242 234 230 232 234 234 238 243 242 241 240 240 239 238 244 251 247 237 235 233 229 233 247 259 266 267 267 269 270 269 266 265 265 265 265 265 265 264 262 260 260 256
333 332 332 335 337 335 336 335 332 329 323 316 310 306 311 265 228 235 237 238 237 226 207 201 223 231 225 222 228 237 244 251 256 255 249 241 238 234 231 235 240 241 243 246 243 236 233 232 233 236 239 240 239 240 240 235 229 234 243 237 229 234 234 226 227 242 256 264 268 269 267 265 262 262 263 265 266 266 263 264 266 260 254 255 257
329 329 329 333 336 336 336 334 331 330 327 324 321 320 325 317 254 245 242 236 232 217 190 195 229 236 230 230 234 238 243 246 249 246 240 238 239 235 232 235 239 242 245 244 240 233 230 232 233 235 240 241 241 242 240 235 230 230 235 233 227 228 228 225 228 236 249 262 268 267 262 256 257 260 261 264 267 266 265 270 271 263 256 252 248
327 326 327 329 331 331 331 331 330 329 328 327 325 320 319 321 291 262 249 241 235 210 176 207 241 244 242 242 236 230 237 242 241 241 240 237 236 235 234 235 236 237 236 237 235 229 226 228 231 236 239 240 239 238 235 234 235 233 229 226 220 216 218 226 229 230 239 254 259 259 255 252 257 264 267 273 276 272 271 272 272 274 274 263 247
324 324 324 323 325 329 330 332 333 332 331 331 329 321 314 314 304 279 259 252 246 213 183 219 245 244 238 236 229 226 231 233 236 243 247 239 232 232 232 229 225 220 220 228 231 228 226 227 230 232 232 231 231 229 228 232 233 228 220 214 212 214 222 231 231 225 229 243 250 253 257 259 264 269 270 274 280 280 276 271 271 277 281 272 261
326 325 322 319 322 327 330 333 334 334 335 335 332 326 315 312 311 295 271 258 251 230 204 212 220 219 222 225 225 226 225 221 226 238 239 230 226 231 236 238 239 232 228 231 231 230 230 227 222 217 216 221 224 221 221 222 212 204 201 201 207 213 216 221 226 226 231 242 249 255 263 266 267 270 270 269 271 272 271 269 267 265 261 252 252
317 313 309 311 316 321 326 331 333 335 339 342 340 333 319 311 315 307 284 259 246 233 219 212 207 207 215 220 223 224 221 212 208 215 219 218 220 232 242 248 249 235 226 227 228 228 225 214 203 203 207 210 210 208 202 190 179 180 184 187 192 190 187 195 210 225 236 246 252 257 260 261 263 264 261 257 256 257 255 255 252 242 235 239 249
306 301 305 312 315 321 329 335 337 341 346 351 349 342 328 315 314 307 287 259 240 229 221 217 211 206 210 216 218 221 219 207 196 201 208 212 217 229 231 222 214 210 215 222 222 220 217 207 201 206 207 197 187 183 177 166 165 175 179 179 182 184 190 205 223 240 252 257 260 261 260 258 260 260 252 243 241 240 232 230 239 247 258 271 279
314 304 309 320 324 328 336 341 344 347 350 355 355 350 340 330 324 315 295 268 247 237 229 222 212 204 205 210 211 212 210 202 193 189 189 194 205 214 213 203 198 203 216 223 217 209 207 205 205 208 203 181 168 170 173 171 172 177 181 184 195 213 231 248 262 269 273 271 263 255 252 252 252 248 237 228 223 219 214 219 237 252 262 272 280
328 322 315 321 329 335 341 346 350 352 354 357 358 355 349 345 346 325 289 272 261 252 243 233 221 209 202 201 203 203 201 196 190 181 175 181 187 190 194 198 200 205 212 217 209 197 193 196 203 203 185 169 171 176 181 183 182 188 205 221 239 258 269 277 280 277 275 267 249 235 235 235 230 226 223 217 209 208 218 235 249 260 269 276 281
328 330 325 324 331 338 344 346 350 353 358 3 1 358 354 346 341 315 257 255 256 254 251 244 231 214 200 195 196 199 197 194 187 177 170 174 176 171 170 175 178 181 184 186 183 174 173 180 186 180 173 178 186 189 188 189 192 208 237 256 270 277 280 281 277 271 267 254 231 221 218 208 198 202 211 215 220 228 242 254 261 267 272 275 277
324 330 331 328 331 337 342 345 349 355 6 13 12 9 2 342 329 328 301 266 254 251 251 246 234 217 202 192 190 193 197 196 187 175 165 169 174 169 167 167 164 161 162 161 150 141 146 158 162 166 173 181 192 196 196 197 213 242 265 276 283 284 281 275 265 258 249 226 204 196 190 183 183 194 210 228 244 253 261 267 270 270 270 272 274
323 329 332 331 330 331 336 343 347 351 5 15 19 22 14 347 331 335 335 319 292 265 250 241 232 218 203 191 183 183 187 187 180 171 167 169 169 167 169 167 163 169 176 171 161 156 157 158 162 165 168 176 187 197 208 232 259 276 286 291 294 292 279 256 237 223 210 193 182 179 181 186 197 212 230 246 256 265 269 270 269 269 268 271 275
318 323 327 328 327 325 327 333 337 343 1 13 13 12 13 359 345 344 337 328 317 293 260 242 233 218 205 193 181 172 169 169 168 169 172 169 166 167 170 169 172 181 182 176 171 173 173 170 169 168 168 176 187 197 216 247 271 285 292 299 302 297 279 239 210 205 207 200 192 191 196 206 219 233 245 252 257 260 260 255 254 260 274 285 289
314 318 322 324 323 321 322 324 325 334 356 12 11 4 3 3 1 1 353 336 319 295 265 244 232 218 204 193 178 163 154 154 159 167 171 169 169 172 173 174 180 182 181 184 190 191 188 184 181 179 178 184 195 208 223 241 261 278 291 302 306 301 280 236 214 211 211 210 212 216 219 223 231 236 235 229 218 202 187 179 204 310 317 309 304
311 315 319 321 320 318 318 318 319 324 337 357 10 9 4 1 1 5 9 358 325 282 254 231 216 206 198 188 176 164 157 156 159 167 174 174 177 182 182 181 183 183 187 198 206 205 202 195 192 192 192 194 203 215 227 239 253 269 288 305 310 302 276 243 227 220 216 218 225 229 226 221 216 208 194 183 176 169 172 224 339 340 331 320 313
308 313 317 320 320 319 316 313 313 317 326 339 355 4 5 359 358 8 17 11 338 278 252 229 208 198 195 187 178 169 163 163 164 168 179 185 188 192 192 189 188 190 193 199 205 208 209 205 203 204 203 204 211 220 230 240 249 261 276 295 307 302 269 239 235 228 224 229 227 213 202 195 188 183 180 181 187 193 206 275 321 331 325 314 311
304 308 313 316 316 316 314 309 305 310 320 327 339 354 3 3 4 13 18 8 344 284 252 234 210 198 197 191 183 175 166 163 166 172 179 187 191 195 197 194 192 191 190 193 203 211 215 216 217 217 214 214 218 226 235 242 249 256 261 271 287 292 263 237 246 245 237 233 220 197 193 192 186 184 187 192 204 221 237 263 301 326 335 330 322
304 307 311 312 310 310 311 306 299 303 312 320 334 351 359 7 17 23 21 10 356 329 262 224 195 188 194 196 192 184 171 162 165 173 177 181 185 193 200 204 208 210 209 210 216 224 230 235 236 233 226 224 228 234 242 251 258 261 260 258 260 263 258 257 266 269 257 243 238 234 229 219 210 205 204 206 219 237 253 269 299 331 348 353 343
304 308 311 310 307 307 308 305 301 302 304 312 338 353 353 1 18 26 28 27 15 349 319 242 169 171 184 192 193 189 178 165 162 166 171 176 182 191 198 206 219 233 242 246 248 251 254 256 252 245 238 234 239 250 261 272 276 271 266 263 261 258 259 267 277 277 266 255 253 253 247 240 237 231 224 228 237 247 251 254 283 322 341 352 354
307 312 313 311 308 307 307 307 308 308 303 303 337 354 348 345 2 20 29 36 34 16 1 359 138 153 162 176 183 182 176 169 164 164 167 171 177 188 199 210 223 239 255 266 272 276 278 275 266 255 249 247 253 265 275 281 282 274 263 261 260 257 259 267 275 273 265 258 257 254 248 244 243 241 238 242 246 248 247 245 256 290 314 332 346
309 313 314 314 314 314 314 314 315 314 305 297 328 1 354 339 339 353 7 22 33 34 22 6 319 176 164 166 171 171 167 167 167 167 168 170 174 182 196 213 230 247 262 270 277 285 289 288 280 269 263 264 268 271 271 271 274 267 252 245 246 247 250 258 265 265 261 260 263 259 249 242 240 242 244 245 244 244 244 242 247 266 285 305 326